Weather History for Sacramento, CA

Change the Weather History Date:

Sunday, April 6, 2014

  Actual Average Record
Temperature  
Mean Temperature 62 °F -  
Max Temperature 79 °F 68 °F 90 °F (1989)
Min Temperature 45 °F 45 °F 34 °F (1982)
Degree Days  
Heating Degree Days 3    
Cooling Degree Days 0    
Growing Degree Days 12 (Base 50)    
Moisture  
Dew Point 48 °F    
Average Humidity 66    
Maximum Humidity 100    
Minimum Humidity 32    
Precipitation  
Precipitation 0.00 in 0.05 in 0.84 in (1967)
Month to date precipitation 1.38 0.30  
Year to date precipitation 7.44 10.16  
Since 1 July precipitation 9.34 16.78  
Sea Level Pressure  
Sea Level Pressure 30.15 in    
Wind  
Wind Speed 5 mph (NW)    
Max Wind Speed 20 mph    
Max Gust Speed 23 mph    
Visibility 10 miles    
Events      
T = Trace of Precipitation, MM = Missing Value Source: NWS Daily Summary

Daily Weather History Graph

Daily Weather History Graph

Search for Another Location

Airport:

Trip Planner

Search our weather history database for the weather conditions in past years. The results will help you decide how hot, cold, wet, or windy it might be!

Date:

Astronomy

Apr. 06, 2014 Rise Set
Actual Time 6:43 AM PDT 7:34 PM PDT
Civil Twilight 6:16 AM PDT 8:01 PM PDT
Nautical Twilight 5:44 AM PDT 8:33 PM PDT
Astronomical Twilight 5:11 AM PDT 9:06 PM PDT
Moon 11:51 AM PDT (4/6) 1:31 AM PDT (4/6)
Length of Visible Light 13h 44m
Length of Day
12h 51m
Waxing Crescent, 45% of the Moon is Illuminated
Apr 6
Waxing Crescent
Apr 7
First Quarter
Apr 15
Full
Apr 22
Last Quarter
Apr 28
New

Hourly Weather History & Observations

Time (PDT) Temp. Windchill Dew Point Humidity Pressure Visibility Wind Dir Wind Speed Gust Speed Precip Events Conditions
12:53 AM 50.0 °F - 48.0 °F 93% 30.17 in 10.0 mi East 3.5 mph - N/A   Clear
1:53 AM 48.9 °F - 46.9 °F 93% 30.17 in 10.0 mi Calm Calm - N/A   Clear
2:53 AM 46.9 °F - 46.0 °F 97% 30.17 in 10.0 mi SW 3.5 mph - N/A   Clear
3:53 AM 48.0 °F - 46.9 °F 96% 30.17 in 10.0 mi Calm Calm - N/A   Clear
4:53 AM 48.0 °F - 46.0 °F 93% 30.17 in 10.0 mi Calm Calm - N/A   Clear
5:53 AM 45.0 °F 43.5 °F 45.0 °F 100% 30.17 in 8.0 mi WSW 3.5 mph - N/A   Clear
6:53 AM 46.9 °F - 46.0 °F 97% 30.19 in 10.0 mi Calm Calm - N/A   Clear
7:53 AM 50.0 °F - 48.9 °F 96% 30.21 in 10.0 mi Calm Calm - N/A   Clear
8:53 AM 55.0 °F - 51.1 °F 86% 30.22 in 10.0 mi Calm Calm - N/A   Clear
9:53 AM 60.1 °F - 48.0 °F 64% 30.22 in 10.0 mi NW 4.6 mph - N/A   Clear
10:53 AM 64.0 °F - 51.1 °F 63% 30.21 in 10.0 mi NNW 8.1 mph - N/A   Clear
11:53 AM 69.1 °F - 51.1 °F 53% 30.19 in 10.0 mi NW 12.7 mph - N/A   Clear
12:53 PM 72.0 °F - 52.0 °F 49% 30.17 in 10.0 mi NNW 13.8 mph - N/A   Clear
1:53 PM 75.0 °F - 50.0 °F 41% 30.16 in 10.0 mi NNW 16.1 mph 23.0 mph N/A   Clear
2:53 PM 78.1 °F - 48.0 °F 35% 30.14 in 10.0 mi NNW 15.0 mph 21.9 mph N/A   Clear
3:53 PM 78.1 °F - 46.9 °F 33% 30.11 in 10.0 mi NNW 17.3 mph 23.0 mph N/A   Clear
4:53 PM 78.1 °F - 48.0 °F 35% 30.09 in 10.0 mi NNW 13.8 mph - N/A   Clear
5:53 PM 78.1 °F - 48.0 °F 35% 30.08 in 10.0 mi NNW 11.5 mph 18.4 mph N/A   Clear
6:53 PM 75.9 °F - 45.0 °F 33% 30.08 in 10.0 mi NNW 10.4 mph - N/A   Clear
7:53 PM 71.1 °F - 46.9 °F 42% 30.08 in 10.0 mi NNW 5.8 mph - N/A   Clear
8:53 PM 63.0 °F - 50.0 °F 63% 30.09 in 10.0 mi Calm Calm - N/A   Clear
9:53 PM 61.0 °F - 51.1 °F 70% 30.10 in 10.0 mi WSW 3.5 mph - N/A   Clear
10:53 PM 60.1 °F - 51.1 °F 72% 30.10 in 10.0 mi Calm Calm - N/A   Clear
11:53 PM 61.0 °F - 50.0 °F 67% 30.09 in 10.0 mi WNW 4.6 mph - N/A   Clear